Simultaneous Nadir Overpasses (SNOs) Predictions

Prediction of SNOs between NOAA-15 and METOP-C Satellite Orbit:

Table of predicted SNOs for the next 14.0 days since TLE Epoch: 3/2/2020
Index Date (NOAA-15) Time (NOAA-15) Lat,Lon (NOAA-15) SZA (NOAA-15 ) Date (METOP-C) Time (METOP-C) Lat,Lon (METOP-C) SZA (METOP-C ) Distance(km) Time Diff (sec)
1 03/16/2020 08:57:53 -80.90, -99.58 96.20 03/16/2020 08:56:49 -80.89, -99.45 96.22 2.89 64
2 03/16/2020 09:48:28 80.90, 67.87 83.80 03/16/2020 09:47:30 80.88, 67.75 83.75 2.88 58
3 03/16/2020 10:38:55 -80.89,-124.64 96.22 03/16/2020 10:38:10 -80.90,-124.57 96.22 1.27 45
4 03/16/2020 11:29:30 80.89, 42.82 83.78 03/16/2020 11:28:51 80.89, 42.64 83.75 3.24 39
5 03/16/2020 12:19:58 -80.90,-150.05 96.25 03/16/2020 12:19:32 -80.89,-150.05 96.27 1.07 26
6 03/16/2020 13:10:33 80.90, 17.40 83.75 03/16/2020 13:10:12 80.90, 17.52 83.75 2.18 21
7 03/16/2020 14:01:00 -80.89,-175.11 96.27 03/16/2020 14:00:53 -80.90,-175.17 96.27 1.65 7
8 03/16/2020 14:51:36 80.91, -8.02 83.71 03/16/2020 14:51:34 80.90, -7.96 83.71 1.30 2
9 03/16/2020 15:42:03 -80.90, 159.48 96.30 03/16/2020 15:42:15 -80.90, 159.36 96.31 2.18 12
10 03/16/2020 16:32:38 80.90, -33.07 83.69 03/16/2020 16:32:55 80.91, -33.08 83.71 1.49 17
11 03/16/2020 17:23:06 -80.91, 134.06 96.34 03/16/2020 17:23:36 -80.91, 134.24 96.31 3.06 30
12 03/16/2020 18:13:41 80.90, -58.49 83.66 03/16/2020 18:14:17 80.90, -58.56 83.67 1.19 36
13 03/16/2020 19:04:09 -80.92, 108.65 96.37 03/16/2020 19:04:58 -80.90, 108.76 96.36 2.52 49




NCC Satellite Simultaneous Nadir Overpasses (SNOs) Prediction Service
